SCP
0 0 0 0 0 0 0 0 0 0 0 0 0 0 0 0 0 0 0 0 0 0 0 0 0 0 0 0 0 0 0 0 0 0 0 0 0 0 0 0 0 0 0 0 0
0 0 0 0 0 0 0 0 0 0 0 0 0 0 0 0 0 0 0 0 0 0 0 0 0 0 0 0 0 0 0 0 0 0 0 0 0 0 0 0 0 0 0 0 0
0 0 0 0 0 0 0 0 0 0 0 0 0 0 0 0 0 0 0 0 0 0 0 0 0 0 0 0 0 0 0 0 0 0 0 0 0 0 0 0 0 0 0 0 0
0 0 0 0 0 0 0 0 0 0 0 0 0 0 0 0 0 0 0 0 0 0 0 0 0 0 0 0 0 0 0 0 0 0 0 0 0 0 0 0 0 0 0 0 0
0 0 0 0 0 0 0 0 0 0 0 0 0 0 0 0 0 0 0 0 0 0 0 0 0 0 0 0 0 0 0 0 0 0 0 0 0 0 0 0 0 0 0 0 0
0 0 0 0 0 0 0 0 0 0 0 0 0 0 0 0 0 0 0 0 0 0 0 0 0 0 0 0 0 0 0 0 0 0 0 0 0 0 0 0 0 0 0 0 0
0 0 0 0 0 0 0 0 0 0 -0 0 0 0 0 0 0 0 0 0 0 0 0 0 0 0 0 0 0 0 0 0 0 0 0 0 0 0 0 0 0 0 0 0 0
0 0 0 0 0 0 0 0 0 0 -0 -0 0 0 0 0 0 0 0 0 0 0 0 0 0 0 0 0 0 0 0 0 0 0 0 0 0 0 0 0 0 0 0 0 0
0 0 0 0 0 0 0 0 -0 0 -0 0 0 0 0 0 0 0 0 0 0 0 0 0 0 0 0 0 0 0 0 0 0 0 0 0 0 0 0 0 0 0 0 0 0
0 0 0 0 0 0 0 -0 0 0 0 0 0 0 0 0 0 0 0 0 0 0 0 0 0 0 0 0 0 0 0 0 0 0 0 0 0 0 0 0 0 0 0 0 0
0 0 0 0 0 0 0 0 0 0 0 0 0 0 0 0 0 0 0 0 0 0 0 0 0 0 0 0 0 0 0 0 0 0 0 0 0 0 0 0 0 0 0 0 0
0 0 0 0 0 0 0 0 0 0 0 0 0 0 0 0 0 0 0 0 0 0 0 0 0 0 0 0 0 0 0 0 0 0 0 0 0 0 0 0 0 0 0 0 0
0 0 0 0 0 0 0 0 0 0 0 0 0 0 0 0 0 0 0 0 0 0 0 0 0 0 0 0 0 -0 0 0 0 0 0 0 0 0 0 0 0 0 0 0 0
0 0 0 0 0 0 0 0 0 0 0 0 0 0 0 0 0 0 0 0 0 0 0 0 0 0 0 0 0 -0 -0 0 0 0 0 0 0 0 0 0 0 0 0 0 0
0 0 0 0 0 0 0 0 0 0 0 0 0 0 0 0 0 0 0 0 0 0 0 0 0 0 0 0 0 0 -0 0 0 0 0 0 0 0 0 0 0 0 0 0 0
0 0 0 0 0 0 0 0 0 0 0 0 0 0 0 0 0 0 0 0 0 0 0 0 0 0 0 0 0 0 0 -0 0 0 0 0 0 0 0 0 0 0 0 0 0
0 0 0 0 0 0 0 0 0 0 0 0 0 0 0 0 0 0 0 0 0 0 0 0 0 0 0 0 0 0 0 0 0 0 0 0 0 0 0 0 0 0 0 0 0
0 0 0 0 0 0 0 0 0 0 0 0 0 0 0 0 0 0 0 0 0 0 0 0 0 0 0 0 0 0 0 0 0 0 0 0 0 0 0 0 0 0 0 0 0
0 0 0 0 0 0 0 0 0 0 0 0 0 0 0 0 0 0 0 0 0 0 0 0 0 0 0 0 0 0 0 0 0 0 -0 -0 -0 0 0 0 0 0 0 0 0
0 0 0 -0 0 0 0 0 0 0 0 0 0 0 0 0 0 0 0 0 0 0 0 0 0 0 0 0 0 0 0 0 0 0 0 0 -0 0 0 0 0 0 0 0 0
0 0 0 -0 0 0 0 0 0 0 0 0 0 0 0 0 0 -0 0 0 0 0 0 0 0 0 0 0 0 0 0 0 0 0 0 0 0 0 0 0 0 0 0 0 0
0 0 0 0 0 0 0 0 0 0 0 0 0 0 0 -0 -0 0 -0 -0 0 0 0 0 0 0 0 0 0 0 0 0 0 0 0 0 0 0 0 -0 0 0 0 0 0
0 0 0 0 0 0 0 0 0 0 0 0 0 0 -0 -0 -0 0 0 0 -0 0 0 0 0 0 0 0 0 0 0 0 0 0 0 0 0 0 0 0 0 0 0 0 0
0 0 0 0 0 0 0 0 0 0 0 0 0 0 -0 0 0 -0 -0 0 -0 0 0 0 0 0 0 0 0 0 0 0 0 0 0 0 0 0 0 0 0 0 0 0 0
0 0 0 0 0 0 0 0 0 0 0 0 0 0 -0 -0 -0 -0 -0 -0 0 -0 0 0 0 0 0 0 0 0 0 0 0 0 0 0 0 0 0 0 0 0 0 0 0
0 0 0 0 0 0 0 0 0 0 0 0 0 0 0 -0 -0 0 0 -0 -0 -0 0 0 0 0 -0 0 0 0 0 0 0 0 0 0 0 0 0 0 0 0 0 0 0
0 0 0 0 0 0 0 0 -0 0 0 0 0 0 0 0 0 0 -0 -0 -0 0 -0 -0 0 0 0 0 0 0 0 0 0 0 0 0 0 0 0 0 0 0 0 0 0
Wind_Speed_500mb
15 16 15 12 12 15 17 19 20 21 24 25 24 24 27 31 34 27 33 36 27 29 27 24 21 21 18 13 14 13 12 22 27 19 17 23 15 8 11 24 11 5 12 29 53
12 12 15 16 16 17 19 21 23 24 25 24 23 21 20 24 26 30 29 33 36 36 25 17 14 23 19 15 14 17 16 24 16 16 17 30 23 24 17 26 12 14 30 46 54
13 13 14 16 18 18 19 19 21 25 29 27 24 20 17 15 18 10 23 36 42 40 34 25 14 19 24 14 18 15 21 15 16 14 16 25 22 11 21 13 13 30 49 50 51
15 15 14 16 18 19 21 24 25 26 28 30 28 22 13 8 8 8 11 14 31 45 42 18 13 13 17 22 18 16 24 14 12 13 14 28 24 20 16 4 11 41 47 48 47
16 19 16 15 15 19 23 24 26 26 28 28 26 23 13 11 16 11 7 5 7 26 48 32 11 14 22 23 18 21 14 20 7 13 17 25 22 20 17 22 36 43 45 49 48
21 22 21 18 16 18 22 25 26 27 28 27 25 18 14 17 14 15 15 10 5 18 39 46 16 15 13 11 29 20 19 18 19 22 22 31 25 11 9 26 42 48 48 45 43
23 22 25 18 16 17 20 23 25 26 28 26 25 23 21 26 19 15 16 17 9 7 26 48 45 10 14 6 9 7 21 13 17 25 9 47 14 10 16 27 37 45 44 41 38
26 24 24 19 17 17 19 22 25 27 28 24 21 21 14 14 19 17 18 17 14 8 13 34 43 19 8 25 14 17 17 24 11 18 19 11 21 9 22 26 31 36 38 38 37
23 24 22 19 17 16 17 21 25 27 28 22 19 13 14 15 13 11 11 13 9 11 9 18 38 12 5 9 4 7 30 41 16 6 13 14 18 23 32 23 27 30 31 33 32
19 21 20 17 15 14 15 19 24 26 21 16 12 10 6 15 29 13 9 11 10 12 19 18 11 13 8 15 10 17 14 40 28 11 15 17 16 25 26 33 33 30 26 29 30
19 19 17 14 11 10 12 13 10 6 13 8 14 11 24 29 24 6 7 5 12 11 18 30 17 34 46 38 25 15 16 24 10 2 11 20 20 26 30 31 34 30 28 25 27
18 17 16 11 7 6 9 6 5 9 12 9 13 15 15 15 12 9 6 7 13 22 12 15 30 29 25 31 26 21 17 14 5 1 5 20 22 13 20 22 28 31 29 27 27
17 17 14 9 4 2 4 6 7 13 7 9 10 9 9 14 10 11 7 6 12 20 20 24 6 24 25 32 35 31 12 11 14 9 18 26 9 16 17 13 16 20 22 23 26
20 18 13 8 2 2 3 7 8 11 4 10 7 4 8 14 8 19 10 7 7 18 17 20 8 25 17 31 35 34 40 25 11 20 8 10 12 18 24 21 22 29 27 25 33
22 17 13 10 3 1 2 4 7 6 5 15 9 11 19 6 16 3 9 8 13 9 12 13 11 14 32 21 24 10 41 32 19 9 8 7 7 8 28 31 31 36 33 29 35
20 16 13 7 2 2 5 4 5 2 7 6 12 16 16 5 4 10 6 7 7 11 17 17 2 9 14 21 19 12 23 26 19 4 7 16 10 13 23 46 36 40 36 34 39
20 16 12 6 2 2 1 2 2 4 8 9 8 13 21 10 9 4 6 9 9 6 16 14 20 4 8 13 16 15 16 9 11 6 2 21 14 5 26 26 44 47 46 43 46
20 15 8 3 2 3 1 3 4 3 7 8 8 24 8 7 6 8 8 11 19 13 4 15 11 18 15 16 13 27 27 7 10 6 7 7 9 5 5 4 33 55 64 54 59
17 10 6 6 5 2 2 1 2 7 4 11 13 6 5 4 6 10 12 18 14 30 19 12 14 3 5 5 13 18 19 6 7 3 6 9 4 7 4 7 28 49 57 57 54
14 10 8 8 3 2 3 3 2 5 8 4 6 4 6 6 7 5 8 6 10 28 31 9 9 1 17 4 9 15 14 11 4 17 12 9 9 13 19 25 27 44 62 59 57
14 7 5 7 3 0 3 4 4 8 6 5 4 7 11 8 8 9 10 4 12 12 38 17 8 4 6 16 24 13 18 7 3 1 10 10 8 2 19 33 41 49 60 63 61
11 4 4 8 2 3 2 8 1 4 4 7 6 11 7 7 13 10 10 7 14 7 20 19 5 8 14 4 5 6 10 26 13 12 1 4 5 3 2 15 32 38 44 50 54
9 6 5 10 3 3 3 2 5 7 8 5 7 5 7 7 9 12 10 15 8 5 11 16 7 6 3 4 3 10 9 18 6 3 11 5 5 5 3 17 30 42 45 48 52
9 4 4 5 5 7 7 4 4 7 7 6 7 5 5 8 11 10 12 7 12 12 12 7 4 9 6 2 3 17 16 17 24 8 10 9 8 6 8 19 33 44 54 55 60
9 4 7 5 3 5 4 5 3 5 9 7 5 8 6 8 7 6 7 12 10 20 5 2 10 4 2 3 8 10 23 26 26 18 18 12 8 8 22 26 39 41 47 53 61
11 11 9 7 8 7 6 9 9 5 7 6 8 5 9 7 6 7 9 7 8 16 10 7 1 3 3 7 3 4 17 29 32 22 20 10 11 1 2 23 35 44 55 62 74
20 16 9 8 7 6 6 8 8 5 11 9 6 5 12 8 12 15 14 15 11 8 10 10 3 1 3 3 5 12 16 28 26 20 27 22 11 12 8 25 42 47 55 60 67
Wind_Direction_500mb
346 352 352 345 335 329 329 328 326 322 320 314 313 308 293 279 274 262 254 238 231 246 245 240 238 238 226 213 190 182 223 208 205 201 175 165 156 145 134 132 116 96 133 149 156
308 325 342 347 342 335 335 337 334 328 321 316 311 307 304 292 280 266 249 246 240 239 239 234 242 231 219 206 185 205 220 210 203 195 183 173 169 146 156 142 103 98 123 147 154
286 300 319 331 329 329 330 331 331 334 331 324 315 307 306 304 301 231 228 231 229 229 233 208 231 257 219 201 194 186 214 201 202 194 178 157 137 125 162 163 156 160 144 151 156
297 306 305 310 318 319 321 324 330 331 332 331 324 315 299 267 251 178 200 225 230 224 218 198 214 237 221 202 203 197 215 194 181 178 169 164 134 102 85 23 133 150 144 154 157
289 290 298 306 304 307 313 318 323 327 331 333 329 321 310 266 257 249 229 212 243 236 212 201 215 292 204 207 189 224 198 196 175 162 148 142 126 121 77 114 133 144 151 159 165
269 278 287 292 298 298 304 311 315 322 328 330 327 317 309 268 264 258 246 232 206 219 215 202 209 219 284 228 208 219 210 188 167 155 142 137 126 136 113 136 148 154 157 161 167
268 267 272 283 289 290 296 303 310 316 324 327 324 315 298 269 279 259 257 246 228 212 221 206 217 217 331 291 338 241 184 160 167 164 131 137 107 100 134 150 141 154 159 162 166
260 260 263 272 282 283 292 300 306 312 317 319 317 309 270 303 302 298 258 252 243 216 222 223 210 211 243 325 256 195 201 188 161 169 166 218 176 169 152 157 142 149 157 164 167
253 250 255 260 273 281 290 297 301 305 309 310 308 303 283 325 327 306 278 245 242 217 180 179 207 190 211 267 234 251 198 200 162 186 153 206 153 171 166 163 150 145 157 164 168
242 240 243 249 268 284 298 304 301 301 303 301 280 295 330 324 333 324 312 242 222 204 166 161 142 170 214 229 196 187 216 195 183 159 184 148 143 151 159 182 162 151 154 164 169
222 228 228 238 260 290 311 329 324 318 327 285 286 285 303 311 311 297 317 247 217 207 203 201 172 209 188 220 196 295 244 212 140 87 149 183 144 166 175 181 158 160 163 162 165
208 208 209 223 250 299 327 14 4 316 317 317 311 314 327 330 303 320 277 226 205 217 201 207 218 212 219 200 197 216 277 304 1 33 138 149 152 150 198 181 173 170 170 168 161
185 184 191 200 212 304 341 354 353 345 282 308 331 342 342 324 296 297 313 267 231 218 207 221 296 166 209 186 194 199 203 250 241 147 68 134 147 177 210 181 181 175 182 171 162
167 170 172 172 180 235 339 344 346 348 335 354 326 352 351 325 267 294 286 265 238 228 212 227 242 200 184 202 191 209 192 225 207 180 174 251 182 207 192 194 198 188 186 179 165
159 164 164 157 103 136 320 311 333 347 313 345 312 322 319 266 312 238 315 244 264 256 209 179 195 193 200 208 198 229 164 181 203 210 137 201 188 168 170 209 202 194 187 184 165
156 158 159 160 150 245 292 304 341 271 256 341 324 353 348 302 271 299 296 242 268 262 258 233 203 210 183 194 217 137 167 170 190 168 226 172 204 186 190 214 188 188 184 175 160
158 159 164 176 233 261 245 355 328 220 354 342 336 337 332 287 301 265 307 220 227 199 230 213 225 262 182 134 213 228 172 164 201 183 282 165 184 257 207 206 188 182 179 176 174
158 160 170 195 196 183 155 69 229 67 259 273 305 308 281 315 259 309 283 254 222 228 251 225 207 208 204 208 184 205 205 189 237 177 140 111 199 229 36 170 194 178 183 181 178
159 165 176 178 181 215 98 196 268 192 260 327 312 308 285 286 287 309 244 251 231 201 206 213 241 160 238 194 151 186 211 205 82 17 138 176 220 235 124 147 165 172 174 180 178
167 154 171 188 210 270 82 278 173 231 307 23 284 208 287 293 330 285 246 228 234 212 209 191 241 173 191 212 234 201 143 179 221 164 196 202 229 222 196 182 174 177 182 179 179
159 141 190 199 233 117 255 206 223 245 267 244 300 290 267 299 278 277 279 273 247 207 209 216 244 100 168 211 201 176 193 221 82 339 200 172 218 206 207 193 188 188 185 180 177
167 106 201 194 42 50 182 164 302 246 251 260 256 246 284 295 287 270 274 264 287 298 194 199 193 210 211 6 299 302 213 201 203 201 58 322 135 57 287 209 186 182 185 180 177
173 150 180 177 198 175 256 154 255 218 217 222 266 233 245 273 289 242 285 311 340 332 155 169 209 198 206 236 214 235 196 209 173 67 196 175 149 7 166 169 177 171 174 170 171
166 131 132 162 128 138 183 154 250 227 252 250 282 305 295 275 232 286 314 322 359 32 19 319 213 262 219 289 323 207 211 210 205 208 163 232 195 241 189 183 178 171 174 175 179
172 155 155 153 176 155 168 139 208 230 224 224 236 252 285 288 285 303 318 317 51 11 6 9 219 206 277 273 293 278 207 194 205 222 212 161 204 169 197 193 190 180 175 176 181
177 156 139 118 139 168 202 200 198 229 215 210 231 248 246 253 273 304 335 9 27 326 356 346 31 48 248 261 294 254 233 206 213 201 230 174 227 34 88 171 177 186 179 180 185
201 170 151 155 166 204 208 184 204 187 217 232 256 283 249 260 252 267 261 275 271 330 329 341 319 215 199 280 133 271 218 204 213 227 209 207 197 164 188 192 190 188 189 189 191
Wind_Speed_850mb
15 16 15 12 12 15 17 19 20 21 24 25 24 24 27 31 34 27 33 36 27 29 27 24 21 21 18 13 14 13 12 22 27 19 17 23 15 8 11 24 11 5 12 29 53
12 12 15 16 16 17 19 21 23 24 25 24 23 21 20 24 26 30 29 33 36 36 25 17 14 23 19 15 14 17 16 24 16 16 17 30 23 24 17 26 12 14 30 46 54
13 13 14 16 18 18 19 19 21 25 29 27 24 20 17 15 18 10 23 36 42 40 34 25 14 19 24 14 18 15 21 15 16 14 16 25 22 11 21 13 13 30 49 50 51
15 15 14 16 18 19 21 24 25 26 28 30 28 22 13 8 8 8 11 14 31 45 42 18 13 13 17 22 18 16 24 14 12 13 14 28 24 20 16 4 11 41 47 48 47
16 19 16 15 15 19 23 24 26 26 28 28 26 23 13 11 16 11 7 5 7 26 48 32 11 14 22 23 18 21 14 20 7 13 17 25 22 20 17 22 36 43 45 49 48
21 22 21 18 16 18 22 25 26 27 28 27 25 18 14 17 14 15 15 10 5 18 39 46 16 15 13 11 29 20 19 18 19 22 22 31 25 11 9 26 42 48 48 45 43
23 22 25 18 16 17 20 23 25 26 28 26 25 23 21 26 19 15 16 17 9 7 26 48 45 10 14 6 9 7 21 13 17 25 9 47 14 10 16 27 37 45 44 41 38
26 24 24 19 17 17 19 22 25 27 28 24 21 21 14 14 19 17 18 17 14 8 13 34 43 19 8 25 14 17 17 24 11 18 19 11 21 9 22 26 31 36 38 38 37
23 24 22 19 17 16 17 21 25 27 28 22 19 13 14 15 13 11 11 13 9 11 9 18 38 12 5 9 4 7 30 41 16 6 13 14 18 23 32 23 27 30 31 33 32
19 21 20 17 15 14 15 19 24 26 21 16 12 10 6 15 29 13 9 11 10 12 19 18 11 13 8 15 10 17 14 40 28 11 15 17 16 25 26 33 33 30 26 29 30
19 19 17 14 11 10 12 13 10 6 13 8 14 11 24 29 24 6 7 5 12 11 18 30 17 34 46 38 25 15 16 24 10 2 11 20 20 26 30 31 34 30 28 25 27
18 17 16 11 7 6 9 6 5 9 12 9 13 15 15 15 12 9 6 7 13 22 12 15 30 29 25 31 26 21 17 14 5 1 5 20 22 13 20 22 28 31 29 27 27
17 17 14 9 4 2 4 6 7 13 7 9 10 9 9 14 10 11 7 6 12 20 20 24 6 24 25 32 35 31 12 11 14 9 18 26 9 16 17 13 16 20 22 23 26
20 18 13 8 2 2 3 7 8 11 4 10 7 4 8 14 8 19 10 7 7 18 17 20 8 25 17 31 35 34 40 25 11 20 8 10 12 18 24 21 22 29 27 25 33
22 17 13 10 3 1 2 4 7 6 5 15 9 11 19 6 16 3 9 8 13 9 12 13 11 14 32 21 24 10 41 32 19 9 8 7 7 8 28 31 31 36 33 29 35
20 16 13 7 2 2 5 4 5 2 7 6 12 16 16 5 4 10 6 7 7 11 17 17 2 9 14 21 19 12 23 26 19 4 7 16 10 13 23 46 36 40 36 34 39
20 16 12 6 2 2 1 2 2 4 8 9 8 13 21 10 9 4 6 9 9 6 16 14 20 4 8 13 16 15 16 9 11 6 2 21 14 5 26 26 44 47 46 43 46
20 15 8 3 2 3 1 3 4 3 7 8 8 24 8 7 6 8 8 11 19 13 4 15 11 18 15 16 13 27 27 7 10 6 7 7 9 5 5 4 33 55 64 54 59
17 10 6 6 5 2 2 1 2 7 4 11 13 6 5 4 6 10 12 18 14 30 19 12 14 3 5 5 13 18 19 6 7 3 6 9 4 7 4 7 28 49 57 57 54
14 10 8 8 3 2 3 3 2 5 8 4 6 4 6 6 7 5 8 6 10 28 31 9 9 1 17 4 9 15 14 11 4 17 12 9 9 13 19 25 27 44 62 59 57
14 7 5 7 3 0 3 4 4 8 6 5 4 7 11 8 8 9 10 4 12 12 38 17 8 4 6 16 24 13 18 7 3 1 10 10 8 2 19 33 41 49 60 63 61
11 4 4 8 2 3 2 8 1 4 4 7 6 11 7 7 13 10 10 7 14 7 20 19 5 8 14 4 5 6 10 26 13 12 1 4 5 3 2 15 32 38 44 50 54
9 6 5 10 3 3 3 2 5 7 8 5 7 5 7 7 9 12 10 15 8 5 11 16 7 6 3 4 3 10 9 18 6 3 11 5 5 5 3 17 30 42 45 48 52
9 4 4 5 5 7 7 4 4 7 7 6 7 5 5 8 11 10 12 7 12 12 12 7 4 9 6 2 3 17 16 17 24 8 10 9 8 6 8 19 33 44 54 55 60
9 4 7 5 3 5 4 5 3 5 9 7 5 8 6 8 7 6 7 12 10 20 5 2 10 4 2 3 8 10 23 26 26 18 18 12 8 8 22 26 39 41 47 53 61
11 11 9 7 8 7 6 9 9 5 7 6 8 5 9 7 6 7 9 7 8 16 10 7 1 3 3 7 3 4 17 29 32 22 20 10 11 1 2 23 35 44 55 62 74
20 16 9 8 7 6 6 8 8 5 11 9 6 5 12 8 12 15 14 15 11 8 10 10 3 1 3 3 5 12 16 28 26 20 27 22 11 12 8 25 42 47 55 60 67
Wind_Direction_850mb
346 352 352 345 335 329 329 328 326 322 320 314 313 308 293 279 274 262 254 238 231 246 245 240 238 238 226 213 190 182 223 208 205 201 175 165 156 145 134 132 116 96 133 149 156
308 325 342 347 342 335 335 337 334 328 321 316 311 307 304 292 280 266 249 246 240 239 239 234 242 231 219 206 185 205 220 210 203 195 183 173 169 146 156 142 103 98 123 147 154
286 300 319 331 329 329 330 331 331 334 331 324 315 307 306 304 301 231 228 231 229 229 233 208 231 257 219 201 194 186 214 201 202 194 178 157 137 125 162 163 156 160 144 151 156
297 306 305 310 318 319 321 324 330 331 332 331 324 315 299 267 251 178 200 225 230 224 218 198 214 237 221 202 203 197 215 194 181 178 169 164 134 102 85 23 133 150 144 154 157
289 290 298 306 304 307 313 318 323 327 331 333 329 321 310 266 257 249 229 212 243 236 212 201 215 292 204 207 189 224 198 196 175 162 148 142 126 121 77 114 133 144 151 159 165
269 278 287 292 298 298 304 311 315 322 328 330 327 317 309 268 264 258 246 232 206 219 215 202 209 219 284 228 208 219 210 188 167 155 142 137 126 136 113 136 148 154 157 161 167
268 267 272 283 289 290 296 303 310 316 324 327 324 315 298 269 279 259 257 246 228 212 221 206 217 217 331 291 338 241 184 160 167 164 131 137 107 100 134 150 141 154 159 162 166
260 260 263 272 282 283 292 300 306 312 317 319 317 309 270 303 302 298 258 252 243 216 222 223 210 211 243 325 256 195 201 188 161 169 166 218 176 169 152 157 142 149 157 164 167
253 250 255 260 273 281 290 297 301 305 309 310 308 303 283 325 327 306 278 245 242 217 180 179 207 190 211 267 234 251 198 200 162 186 153 206 153 171 166 163 150 145 157 164 168
242 240 243 249 268 284 298 304 301 301 303 301 280 295 330 324 333 324 312 242 222 204 166 161 142 170 214 229 196 187 216 195 183 159 184 148 143 151 159 182 162 151 154 164 169
222 228 228 238 260 290 311 329 324 318 327 285 286 285 303 311 311 297 317 247 217 207 203 201 172 209 188 220 196 295 244 212 140 87 149 183 144 166 175 181 158 160 163 162 165
208 208 209 223 250 299 327 14 4 316 317 317 311 314 327 330 303 320 277 226 205 217 201 207 218 212 219 200 197 216 277 304 1 33 138 149 152 150 198 181 173 170 170 168 161
185 184 191 200 212 304 341 354 353 345 282 308 331 342 342 324 296 297 313 267 231 218 207 221 296 166 209 186 194 199 203 250 241 147 68 134 147 177 210 181 181 175 182 171 162
167 170 172 172 180 235 339 344 346 348 335 354 326 352 351 325 267 294 286 265 238 228 212 227 242 200 184 202 191 209 192 225 207 180 174 251 182 207 192 194 198 188 186 179 165
159 164 164 157 103 136 320 311 333 347 313 345 312 322 319 266 312 238 315 244 264 256 209 179 195 193 200 208 198 229 164 181 203 210 137 201 188 168 170 209 202 194 187 184 165
156 158 159 160 150 245 292 304 341 271 256 341 324 353 348 302 271 299 296 242 268 262 258 233 203 210 183 194 217 137 167 170 190 168 226 172 204 186 190 214 188 188 184 175 160
158 159 164 176 233 261 245 355 328 220 354 342 336 337 332 287 301 265 307 220 227 199 230 213 225 262 182 134 213 228 172 164 201 183 282 165 184 257 207 206 188 182 179 176 174
158 160 170 195 196 183 155 69 229 67 259 273 305 308 281 315 259 309 283 254 222 228 251 225 207 208 204 208 184 205 205 189 237 177 140 111 199 229 36 170 194 178 183 181 178
159 165 176 178 181 215 98 196 268 192 260 327 312 308 285 286 287 309 244 251 231 201 206 213 241 160 238 194 151 186 211 205 82 17 138 176 220 235 124 147 165 172 174 180 178
167 154 171 188 210 270 82 278 173 231 307 23 284 208 287 293 330 285 246 228 234 212 209 191 241 173 191 212 234 201 143 179 221 164 196 202 229 222 196 182 174 177 182 179 179
159 141 190 199 233 117 255 206 223 245 267 244 300 290 267 299 278 277 279 273 247 207 209 216 244 100 168 211 201 176 193 221 82 339 200 172 218 206 207 193 188 188 185 180 177
167 106 201 194 42 50 182 164 302 246 251 260 256 246 284 295 287 270 274 264 287 298 194 199 193 210 211 6 299 302 213 201 203 201 58 322 135 57 287 209 186 182 185 180 177
173 150 180 177 198 175 256 154 255 218 217 222 266 233 245 273 289 242 285 311 340 332 155 169 209 198 206 236 214 235 196 209 173 67 196 175 149 7 166 169 177 171 174 170 171
166 131 132 162 128 138 183 154 250 227 252 250 282 305 295 275 232 286 314 322 359 32 19 319 213 262 219 289 323 207 211 210 205 208 163 232 195 241 189 183 178 171 174 175 179
172 155 155 153 176 155 168 139 208 230 224 224 236 252 285 288 285 303 318 317 51 11 6 9 219 206 277 273 293 278 207 194 205 222 212 161 204 169 197 193 190 180 175 176 181
177 156 139 118 139 168 202 200 198 229 215 210 231 248 246 253 273 304 335 9 27 326 356 346 31 48 248 261 294 254 233 206 213 201 230 174 227 34 88 171 177 186 179 180 185
201 170 151 155 166 204 208 184 204 187 217 232 256 283 249 260 252 267 261 275 271 330 329 341 319 215 199 280 133 271 218 204 213 227 209 207 197 164 188 192 190 188 189 189 191